Regional Weather Roundup
Issued by NWS Sioux Falls, SD

Home | Current Version | Previous Version | Graphics & Text | Print | Product List | Glossary Off
Versions: 1 2 3 4 5 6 7 8 9 10 11 12 13 14 15 16 17 18 19 20 21 22 23 24 25 26 27 28 29 30 31 32 33 34 35 36 37 38 39 40 41 42 43 44 45 46 47 48 49 50

000
ASUS43 KFSD 221702
RWRFSD

WEATHER ROUNDUP FOR SE SOUTH DAKOTA/SW MINNESOTA/NW IOWA
NATIONAL WEATHER SERVICE SIOUX FALLS SD
1200 PM CDT FRI JUL 22 2016

NOTE: "FAIR" INDICATES FEW OR NO CLOUDS BELOW 12,000 FEET WITH NO
SIGNIFICANT WEATHER AND OR OBSTRUCTIONS TO VISIBILITY.


SDZ038>040-050-052>070-221800-
SOUTHEAST SOUTH DAKOTA

CITY           SKY/WX    TMP DP  RH WIND       PRES   REMARKS
BROOKINGS      MOSUNNY   86  76  71 E13G18    30.03R HX  96
CHAMBERLAIN    MOSUNNY   89  79  72 E8        30.02S HX 105
HURON          MOSUNNY   89  76  65 MISG      29.99R HX 100
MADISON        PTSUNNY   84  82  94 E10       30.03S HX 101
MITCHELL       MOSUNNY   90  79  70 MISG      29.99S HX 106
SIOUX FALLS    PTSUNNY   90  78  68 E12       29.98F HX 104
WINNER         FAIR      89  75  63 VRB6      30.03S HX  99
YANKTON        PTSUNNY   90  81  74 NE6       29.95R HX 108
$$

MNZ071-072-080-081-089-090-097-098-221800-
SOUTHWEST MINNESOTA

CITY           SKY/WX    TMP DP  RH WIND       PRES   REMARKS
FAIRMONT       CLOUDY    81  73  78 E5        30.01R
JACKSON        PTSUNNY   86  77  74 E8        30.03S HX  97
LUVERNE        MOSUNNY   86  77  74 E10       30.01S HX  97
MARSHALL       MOSUNNY   85  76  74 E12       30.03R
MONTEVIDEO     SUNNY     90  68  48 SE8       30.04R
REDWOOD FALLS  SUNNY     88  69  53 E10       30.02R
TRACY          MOSUNNY   86  78  79 E10       30.03S HX  98
WINDOM         PTSUNNY   82  79  89 NE10      30.03S
WORTHINGTON    PTSUNNY   86  80  82 NE10      30.03R HX 101
$$

IAZ001>003-012>014-020>022-031-032-NEZ013-014-SDZ071-221800-
NORTHWEST IOWA

CITY           SKY/WX    TMP DP  RH WIND       PRES   REMARKS
CHEROKEE       MOSUNNY   88  79  75 SE7       29.98R HX 103
DENISON        SUNNY     86  77  74 S13       29.96R HX  97
ESTHERVILLE    CLOUDY    81  79  94 NE9       30.01R
LE MARS        MOSUNNY   91  81  70 VRB6G12   29.97R HX 110
SHELDON        CLOUDY    84  81  89 E10       29.99S HX  98
SIOUX CITY     SUNNY     92  77  61 VRB3      29.94R HX 105
SPENCER        CLOUDY    86  79  79 NE9       30.00S HX  99
STORM LAKE     SUNNY     86  79  79 S12       30.00R HX  99
$$

ABBREVIATIONS USED IN REMARKS
   TC - TEMPERATURE IN CELSIUS
  WCI - WIND CHILL INDEX
   HX - HEAT INDEX
  VSB - VISIBILITY





USA.gov is the U.S. government's official web portal to all federal, state and local government web resources and services.